Orbital Elements at Epoch 2459000.5 (2020-May-31.0) TDB
Reference: JPL 28 (heliocentric ecliptic J2000)
Element | Value | Uncertainty (1-sigma) | Units |
e | .08077258705684934 | 3.265e-08 | |
a | 2.549970527212734 | 1.0658e-08 | au |
q | 2.344002810811044 | 8.3679e-08 | au |
i | 10.62354837762332 | 3.6483e-06 | deg |
node | 132.5496667969632 | 1.8418e-05 | deg |
peri | 165.37423655158 | 3.2021e-05 | deg |
M | 230.062728400725 | 2.8655e-05 | deg |
tp | 2459537.324601838039 (2021-Nov-18.82460184) | 0.00011938 | TDB |
period | 1487.308870527125 4.07 | 9.3249e-06 2.553e-08 | d yr |
n | .2420479075556179 | 1.5176e-09 | deg/d |
Q | 2.755938243614425 | 1.1519e-08 | au |
|
| | Orbit Determination Parameters
Additional Information
|